Location: Aufkirchen
(47.9603°N, 11.3653°E)
Time: 11:39:19
(UTC+01:00)

Tiros 1 - Pass Details

Date: 26 November 2020
Orbit: 630 x 663 km, 48.4° (Epoch: 21 January)

Event Time Altitude Azimuth Distance (km) Brightness Sun altitude
Rises 21:41:29 0° 286° (WNW) 2,977 - -51.1°
Reaches altitude 10° 21:43:56 10° 279° (W) 2,058 - -51.5°
Maximum altitude 21:48:25 43° 209° (SSW) 904 - -52.1°
Drops below altitude 10° 21:52:51 10° 138° (SE) 2,029 - -52.7°
Sets 21:55:14 0° 131° (SE) 2,931 - -53.1°
